When you browse on this site, cookies collect data to enhance your experience and personalize the content and advertising you see.
Visit our Privacy Policy to learn more. By continuing to use the site, you agree to this use of cookies and data.
  • In United Kingdom
  • List of Countries
  • For 7 days
  • Water Temperature
  • Satellite Maps
  • Weather Map
  • Weather Widgets
  • user-avatar
    Login

    Hourly Weather Shirin

    Today, 23 March, Saturday

    Time Temperature Precipitation Wind Pressure Humidity
    00:00 +9°C° 0.3 mm 1 mps 690 mmHg 89%
    01:00 +9°C° 0.3 mm 1 mps 690 mmHg 89%
    02:00 +9°C° 0.8 mm 1 mps 690 mmHg 90%
    03:00 +9°C° 0.8 mm 1 mps 690 mmHg 91%
    04:00 +10°C° 0 mm 1 mps 690 mmHg 91%
    05:00 +9°C° 1.5 mm 2 mps 690 mmHg 91%
    06:00 +9°C° 1.5 mm 2 mps 690 mmHg 90%
    07:00 +9°C° 1.5 mm 2 mps 690 mmHg 90%
    08:00 +8°C° 0.7 mm 4 mps 691 mmHg 86%
    09:00 +8°C° 0.7 mm 5 mps 691 mmHg 82%
    10:00 +7°C° 0 mm 8 mps 691 mmHg 77%
    11:00 +7°C° 0.1 mm 8 mps 691 mmHg 74%
    12:00 +7°C° 0.1 mm 9 mps 691 mmHg 72%
    13:00 +7°C° 0.1 mm 9 mps 691 mmHg 69%
    14:00 +7°C° 0 mm 9 mps 692 mmHg 67%
    15:00 +7°C° 0 mm 8 mps 692 mmHg 66%
    16:00 +7°C° 0 mm 8 mps 692 mmHg 64%
    17:00 +6°C° 0 mm 7 mps 692 mmHg 69%
    18:00 +6°C° 0 mm 5 mps 692 mmHg 74%
    19:00 +5°C° 0 mm 4 mps 693 mmHg 79%
    20:00 +4°C° 0 mm 3 mps 693 mmHg 81%
    21:00 +4°C° 0 mm 3 mps 693 mmHg 82%
    22:00 +5°C° 0 mm 2 mps 693 mmHg 84%
    23:00 +4°C° 0 mm 2 mps 693 mmHg 83%

    Tomorrow, 24 March, Sunday

    Time Temperature Precipitation Wind Pressure Humidity
    00:00 +4°C° 0 mm 2 mps 693 mmHg 83%
    01:00 +5°C° 0 mm 1 mps 693 mmHg 83%
    02:00 +5°C° 0 mm 1 mps 693 mmHg 81%
    03:00 +5°C° 0 mm 1 mps 693 mmHg 80%
    04:00 +3°C° 0 mm 0 mps 693 mmHg 79%
    05:00 +5°C° 0 mm 1 mps 693 mmHg 74%
    06:00 +6°C° 0 mm 1 mps 693 mmHg 69%
    07:00 +7°C° 0 mm 1 mps 693 mmHg 64%
    08:00 +9°C° 0 mm 1 mps 693 mmHg 57%
    09:00 +10°C° 0 mm 2 mps 693 mmHg 49%
    10:00 +13°C° 0 mm 2 mps 693 mmHg 42%
    11:00 +14°C° 0 mm 2 mps 693 mmHg 39%
    12:00 +15°C° 0 mm 2 mps 693 mmHg 36%
    13:00 +16°C° 0 mm 2 mps 692 mmHg 34%
    14:00 +16°C° 0 mm 2 mps 692 mmHg 34%
    15:00 +16°C° 0 mm 2 mps 692 mmHg 35%
    16:00 +16°C° 0 mm 2 mps 691 mmHg 35%
    17:00 +14°C° 0 mm 3 mps 691 mmHg 42%
    18:00 +12°C° 0 mm 3 mps 691 mmHg 49%
    19:00 +11°C° 0 mm 3 mps 691 mmHg 56%
    20:00 +10°C° 0 mm 3 mps 691 mmHg 57%
    21:00 +10°C° 0 mm 3 mps 691 mmHg 58%
    22:00 +9°C° 0 mm 3 mps 691 mmHg 59%
    23:00 +9°C° 0 mm 3 mps 690 mmHg 60%

    Day after tomorrow, 25 March, Monday

    Time Temperature Precipitation Wind Pressure Humidity
    00:00 +9°C° 0 mm 2 mps 690 mmHg 61%
    01:00 +9°C° 0 mm 2 mps 690 mmHg 62%
    02:00 +8°C° 0 mm 2 mps 690 mmHg 60%
    03:00 +8°C° 0 mm 2 mps 690 mmHg 59%
    04:00 +8°C° 0 mm 2 mps 690 mmHg 58%
    05:00 +9°C° 0 mm 2 mps 690 mmHg 54%
    06:00 +10°C° 0 mm 2 mps 690 mmHg 51%
    07:00 +13°C° 0 mm 1 mps 690 mmHg 48%
    08:00 +15°C° 0 mm 1 mps 691 mmHg 41%
    09:00 +17°C° 0 mm 2 mps 691 mmHg 35%
    10:00 +19°C° 0 mm 2 mps 692 mmHg 28%
    11:00 +20°C° 0 mm 2 mps 692 mmHg 27%
    12:00 +21°C° 0 mm 2 mps 691 mmHg 25%
    13:00 +21°C° 0 mm 2 mps 691 mmHg 24%
    14:00 +23°C° 0 mm 2 mps 691 mmHg 25%
    15:00 +23°C° 0 mm 2 mps 691 mmHg 25%
    16:00 +23°C° 0 mm 2 mps 690 mmHg 25%
    17:00 +20°C° 0 mm 2 mps 690 mmHg 30%
    18:00 +18°C° 0 mm 3 mps 690 mmHg 35%
    19:00 +16°C° 0 mm 3 mps 690 mmHg 39%
    20:00 +16°C° 0 mm 3 mps 690 mmHg 39%
    21:00 +16°C° 0 mm 3 mps 690 mmHg 38%
    22:00 +14°C° 0 mm 3 mps 690 mmHg 38%
    23:00 +15°C° 0 mm 2 mps 689 mmHg 37%

    26 March, Tuesday

    Time Temperature Precipitation Wind Pressure Humidity
    00:00 +15°C° 0 mm 2 mps 689 mmHg 37%
    01:00 +15°C° 0 mm 2 mps 689 mmHg 36%
    02:00 +15°C° 0 mm 2 mps 689 mmHg 36%
    03:00 +15°C° 0 mm 2 mps 689 mmHg 35%
    04:00 +14°C° 0 mm 3 mps 689 mmHg 34%
    05:00 +15°C° 0 mm 2 mps 689 mmHg 35%
    06:00 +16°C° 0 mm 2 mps 689 mmHg 36%
    07:00 +16°C° 0 mm 1 mps 689 mmHg 37%
    08:00 +17°C° 0.2 mm 2 mps 689 mmHg 38%
    09:00 +18°C° 0.2 mm 2 mps 689 mmHg 39%
    10:00 +18°C° 0.2 mm 2 mps 689 mmHg 40%
    11:00 +20°C° 0 mm 3 mps 689 mmHg 35%
    12:00 +22°C° 0 mm 4 mps 690 mmHg 30%
    13:00 +23°C° 0 mm 4 mps 690 mmHg 25%
    14:00 +23°C° 0 mm 5 mps 690 mmHg 26%
    15:00 +22°C° 0 mm 5 mps 689 mmHg 28%
    16:00 +21°C° 0 mm 6 mps 689 mmHg 29%
    17:00 +19°C° 0.1 mm 5 mps 689 mmHg 41%
    18:00 +17°C° 0.1 mm 5 mps 690 mmHg 52%
    19:00 +15°C° 0.1 mm 5 mps 690 mmHg 64%
    20:00 +15°C° 0.3 mm 4 mps 690 mmHg 65%
    21:00 +15°C° 0.3 mm 4 mps 690 mmHg 67%
    22:00 +14°C° 0.3 mm 3 mps 690 mmHg 69%
    23:00 +14°C° 0.1 mm 3 mps 690 mmHg 66%

    27 March, Wednesday

    Time Temperature Precipitation Wind Pressure Humidity
    00:00 +15°C° 0.1 mm 2 mps 690 mmHg 63%
    01:00 +15°C° 0.1 mm 2 mps 690 mmHg 60%
    02:00 +15°C° 0.2 mm 2 mps 690 mmHg 61%
    03:00 +14°C° 0.2 mm 2 mps 690 mmHg 62%
    04:00 +14°C° 0.2 mm 2 mps 690 mmHg 63%
    05:00 +14°C° 0.5 mm 2 mps 690 mmHg 67%
    06:00 +13°C° 0.5 mm 2 mps 690 mmHg 72%
    07:00 +13°C° 0.5 mm 2 mps 690 mmHg 76%
    08:00 +12°C° 0.9 mm 3 mps 690 mmHg 78%
    09:00 +13°C° 0.9 mm 4 mps 689 mmHg 79%
    10:00 +13°C° 0.9 mm 4 mps 689 mmHg 80%
    11:00 +13°C° 1.1 mm 4 mps 689 mmHg 80%
    12:00 +13°C° 1.1 mm 4 mps 689 mmHg 80%
    13:00 +13°C° 1.1 mm 3 mps 688 mmHg 80%
    14:00 +14°C° 0.7 mm 4 mps 688 mmHg 78%
    15:00 +15°C° 0.7 mm 4 mps 688 mmHg 75%
    16:00 +17°C° 0.7 mm 4 mps 687 mmHg 73%
    17:00 +14°C° 0.5 mm 4 mps 687 mmHg 73%
    18:00 +13°C° 0.5 mm 4 mps 687 mmHg 73%
    19:00 +12°C° 0.5 mm 3 mps 687 mmHg 74%
    20:00 +13°C° 0.9 mm 3 mps 687 mmHg 76%
    21:00 +13°C° 0.9 mm 3 mps 687 mmHg 79%
    22:00 +13°C° 0.9 mm 3 mps 687 mmHg 82%
    23:00 +13°C° 0.1 mm 4 mps 687 mmHg 83%

    28 March, Thursday

    Time Temperature Precipitation Wind Pressure Humidity
    00:00 +13°C° 0.1 mm 5 mps 687 mmHg 85%
    01:00 +13°C° 0.1 mm 6 mps 687 mmHg 86%
    02:00 +13°C° 0.7 mm 6 mps 687 mmHg 88%
    03:00 +13°C° 0.7 mm 6 mps 688 mmHg 90%
    04:00 +13°C° 0.7 mm 6 mps 688 mmHg 92%
    05:00 +13°C° 0.1 mm 6 mps 689 mmHg 90%
    06:00 +12°C° 0.1 mm 7 mps 689 mmHg 88%
    07:00 +12°C° 0.1 mm 8 mps 690 mmHg 87%
    08:00 +12°C° 0.1 mm 7 mps 690 mmHg 86%
    09:00 +12°C° 0.1 mm 7 mps 690 mmHg 85%
    10:00 +14°C° 0.1 mm 7 mps 691 mmHg 83%
    11:00 +14°C° 0 mm 7 mps 691 mmHg 76%
    12:00 +15°C° 0 mm 6 mps 691 mmHg 69%
    13:00 +16°C° 0 mm 6 mps 691 mmHg 62%
    14:00 +16°C° 0.2 mm 5 mps 691 mmHg 60%
    15:00 +17°C° 0.2 mm 4 mps 690 mmHg 58%
    16:00 +17°C° 0.2 mm 3 mps 690 mmHg 56%
    17:00 +16°C° 0.2 mm 2 mps 690 mmHg 61%
    18:00 +15°C° 0.2 mm 1 mps 690 mmHg 66%
    19:00 +13°C° 0.2 mm 0 mps 690 mmHg 71%
    20:00 +13°C° 0.2 mm 1 mps 690 mmHg 73%
    21:00 +13°C° 0.2 mm 1 mps 690 mmHg 74%
    22:00 +13°C° 0.2 mm 2 mps 690 mmHg 75%
    23:00 +12°C° 0.1 mm 2 mps 690 mmHg 76%
    Show more